Rolla, ND

11:47 AM CDT on August 20, 2017 (GMT -0500)
Rolla

Weather History for K06D - July, 2013

Change the Weather History Date:

Saturday, July 6, 2013

  Actual Average (KRUG) Record (KRUG)
Temperature  
Mean Temperature 68 °F -  
Max Temperature 77 °F 82 °F 98 °F (1981)
Min Temperature 59 °F 57 °F 42 °F (1984)
Cooling Degree Days 3    
Growing Degree Days 18 (Base 50)    
Moisture  
Dew Point 64 °F    
Average Humidity 88    
Maximum Humidity 100    
Minimum Humidity 65    
Precipitation  
Precipitation 0.08 in - - ()
Sea Level Pressure  
Sea Level Pressure 29.83 in    
Wind  
Wind Speed 6 mph (SSE)    
Max Wind Speed 16 mph    
Max Gust Speed 28 mph    
Visibility 10 miles    
Events Rain , Thunderstorm    
Averages and records for this station are not official NWS values.
T = Trace of Precipitation, MM = Missing Value Source: NWS Daily Summary

Daily Weather History Graph

Daily Weather History Graph

Search for Another Location

Airport or City:

Trip Planner

Search our weather history database for the weather conditions in past years. The results will help you decide how hot, cold, wet, or windy it might be!

Date:

Astronomy

Jul. 06, 2013 Rise Set
Actual Time 5:42 AM CDT 9:43 PM CDT
Civil Twilight 5:01 AM CDT 10:25 PM CDT
Nautical Twilight 4:02 AM CDT 11:23 PM CDT
Astronomical Twilight 2:19 AM CDT 1:03 AM CDT
Moon 4:35 AM CDT (7/6) 8:20 PM CDT (7/6)
Length of Visible Light 17h 23m
Length of Day
16h 00m
Waning Crescent, 2% of the Moon is Illuminated
Jul 6
Waning Crescent
Jul 8
New
Jul 15
First Quarter
Jul 22
Full
Jul 29
Last Quarter

Hourly Weather History & Observations

Time (CDT) Temp. Dew Point Humidity Pressure Visibility Wind Dir Wind Speed Gust Speed Precip Events Conditions
12:15 AM 62.6 °F 62.6 °F 100% 29.85 in 10.0 mi SSE 3.5 mph - N/A Rain Light Rain
12:35 AM 62.6 °F 62.6 °F 100% 29.84 in 10.0 mi SSE 6.9 mph - N/A   Overcast
12:55 AM 64.4 °F 64.4 °F 100% 29.83 in 10.0 mi SSE 5.8 mph - N/A   Overcast
1:15 AM 64.4 °F 64.4 °F 100% 29.81 in 10.0 mi ESE 8.1 mph - N/A   Overcast
1:35 AM 64.4 °F 64.4 °F 100% 29.81 in 10.0 mi East 8.1 mph - N/A   Overcast
1:55 AM 64.4 °F 64.4 °F 100% 29.81 in 10.0 mi ENE 4.6 mph - N/A   Overcast
2:15 AM 62.6 °F 62.6 °F 100% 29.81 in 10.0 mi NNE 6.9 mph - N/A   Overcast
2:35 AM 62.6 °F 62.6 °F 100% 29.81 in 10.0 mi NNE 5.8 mph - N/A   Partly Cloudy
2:55 AM 62.6 °F 62.6 °F 100% 29.82 in 10.0 mi Calm Calm - N/A   Partly Cloudy
3:15 AM 62.6 °F 62.6 °F 100% 29.83 in 10.0 mi Calm Calm - N/A   Mostly Cloudy
3:35 AM 62.6 °F 62.6 °F 100% 29.84 in 10.0 mi Calm Calm - N/A   Overcast
3:55 AM 64.4 °F 62.6 °F 94% 29.84 in 10.0 mi Calm Calm - N/A   Overcast
4:15 AM 62.6 °F 62.6 °F 100% 29.83 in 10.0 mi NE 3.5 mph - N/A   Mostly Cloudy
4:35 AM 62.6 °F 62.6 °F 100% 29.82 in 10.0 mi Calm Calm - N/A   Partly Cloudy
4:55 AM 60.8 °F 60.8 °F 100% 29.82 in 10.0 mi ENE 3.5 mph - N/A   Mostly Cloudy
5:15 AM 59.0 °F 59.0 °F 100% 29.82 in 10.0 mi Calm Calm - N/A   Scattered Clouds
5:35 AM 59.0 °F 59.0 °F 100% 29.82 in 10.0 mi Calm Calm - N/A   Clear
5:55 AM 59.0 °F 59.0 °F 100% 29.83 in 10.0 mi Calm Calm - N/A   Clear
6:15 AM 59.0 °F 59.0 °F 100% 29.83 in 10.0 mi Calm Calm - N/A   Clear
6:35 AM 59.0 °F 59.0 °F 100% 29.83 in 10.0 mi Calm Calm - N/A   Clear
6:55 AM 60.8 °F 60.8 °F 100% 29.83 in 10.0 mi Calm Calm - N/A   Clear
7:15 AM 64.4 °F 60.8 °F 88% 29.83 in 10.0 mi ENE 3.5 mph - N/A   Clear
7:35 AM 64.4 °F 60.8 °F 88% 29.83 in 10.0 mi East 3.5 mph - N/A   Clear
7:55 AM 66.2 °F 59.0 °F 78% 29.82 in 10.0 mi East 5.8 mph - N/A   Clear
8:15 AM 68.0 °F 60.8 °F 78% 29.82 in 10.0 mi East 6.9 mph - N/A   Clear
8:35 AM 68.0 °F 59.0 °F 73% 29.82 in 10.0 mi ESE 9.2 mph - N/A   Clear
8:55 AM 69.8 °F 60.8 °F 73% 29.83 in 10.0 mi ESE 9.2 mph - N/A   Clear
9:15 AM 69.8 °F 59.0 °F 68% 29.83 in 10.0 mi SE 8.1 mph - N/A   Clear
9:35 AM 69.8 °F 62.6 °F 78% 29.83 in 10.0 mi SE 6.9 mph - N/A   Clear
9:55 AM 71.6 °F 60.8 °F 69% 29.85 in 10.0 mi SE 5.8 mph - N/A   Clear
10:15 AM 69.8 °F 60.8 °F 73% 29.85 in 10.0 mi SSE 4.6 mph - N/A   Mostly Cloudy
10:35 AM 68.0 °F 59.0 °F 73% 29.85 in 10.0 mi South 5.8 mph - N/A Rain Light Rain
10:55 AM 66.2 °F 64.4 °F 94% 29.86 in 7.0 mi SSW 5.8 mph - 0.01 in Rain Light Rain
11:15 AM 66.2 °F 66.2 °F 100% 29.85 in 2.0 mi SSE 4.6 mph - 0.02 in Rain Rain
11:35 AM 66.2 °F 66.2 °F 100% 29.85 in 7.0 mi SSE 4.6 mph - 0.05 in Rain Light Rain
11:55 AM 66.2 °F 66.2 °F 100% 29.85 in 10.0 mi SSE 12.7 mph - 0.06 in   Clear
12:15 PM 66.2 °F 66.2 °F 100% 29.82 in 5.0 mi SE 16.1 mph - 0.01 in Rain Light Rain
12:35 PM 66.2 °F 66.2 °F 100% 29.85 in 10.0 mi SSW 10.4 mph - 0.01 in   Clear
12:55 PM 66.2 °F 66.2 °F 100% 29.85 in 10.0 mi SSW 9.2 mph - 0.01 in   Clear
1:15 PM 66.2 °F 66.2 °F 100% 29.85 in 10.0 mi South 8.1 mph - N/A Rain Light Rain
1:35 PM 68.0 °F 68.0 °F 100% 29.85 in 10.0 mi SSW 5.8 mph - N/A   Scattered Clouds
1:55 PM 68.0 °F 68.0 °F 100% 29.85 in 10.0 mi SSE 3.5 mph - N/A   Scattered Clouds
2:15 PM 69.8 °F 68.0 °F 94% 29.84 in 10.0 mi ESE 9.2 mph - N/A   Clear
2:35 PM 71.6 °F 68.0 °F 88% 29.84 in 10.0 mi SE 8.1 mph - N/A   Clear
2:55 PM 73.4 °F 66.2 °F 78% 29.84 in 10.0 mi SSE 6.9 mph - N/A   Partly Cloudy
3:15 PM 73.4 °F 66.2 °F 78% 29.84 in 10.0 mi SSE 6.9 mph - N/A   Clear
3:35 PM 73.4 °F 66.2 °F 78% 29.84 in 10.0 mi South 9.2 mph - N/A   Scattered Clouds
3:55 PM 75.2 °F 66.2 °F 73% 29.85 in 10.0 mi South 6.9 mph - N/A   Mostly Cloudy
4:15 PM 75.2 °F 64.4 °F 69% 29.84 in 10.0 mi South 11.5 mph - N/A   Partly Cloudy
4:35 PM 75.2 °F 66.2 °F 73% 29.84 in 10.0 mi South 10.4 mph - N/A   Unknown
4:55 PM 75.2 °F 64.4 °F 69% 29.84 in 10.0 mi South 11.5 mph - N/A   Unknown
5:15 PM 75.2 °F 64.4 °F 69% 29.84 in 10.0 mi SSW 11.5 mph 16.1 mph N/A   Clear
5:35 PM 75.2 °F 66.2 °F 73% 29.83 in 10.0 mi South 11.5 mph - N/A   Clear
5:55 PM 75.2 °F 66.2 °F 73% 29.83 in 10.0 mi South 10.4 mph 17.3 mph N/A   Clear
6:15 PM 77.0 °F 66.2 °F 69% 29.82 in 10.0 mi South 13.8 mph 17.3 mph N/A   Partly Cloudy
6:35 PM 77.0 °F 64.4 °F 65% 29.82 in 10.0 mi SSW 15.0 mph 18.4 mph N/A   Partly Cloudy
6:55 PM 77.0 °F 64.4 °F 65% 29.81 in 10.0 mi SSW 11.5 mph - N/A   Partly Cloudy
7:15 PM 77.0 °F 66.2 °F 69% 29.81 in 10.0 mi South 13.8 mph 17.3 mph N/A   Clear
7:35 PM 75.2 °F 66.2 °F 73% 29.81 in 10.0 mi South 9.2 mph - N/A   Clear
7:55 PM 75.2 °F 68.0 °F 78% 29.82 in 10.0 mi South 6.9 mph - N/A   Clear
8:15 PM 73.4 °F 66.2 °F 78% 29.81 in 10.0 mi SSW 8.1 mph - N/A   Clear
8:35 PM 73.4 °F 68.0 °F 83% 29.82 in 10.0 mi South 6.9 mph - N/A   Clear
8:55 PM 73.4 °F 68.0 °F 83% 29.81 in 10.0 mi South 8.1 mph - N/A   Clear
9:15 PM 73.4 °F 68.0 °F 83% 29.81 in 10.0 mi South 6.9 mph - N/A   Scattered Clouds
9:35 PM 73.4 °F 69.8 °F 88% 29.81 in 10.0 mi SSE 11.5 mph - N/A   Mostly Cloudy
9:55 PM 71.6 °F 71.6 °F 100% 29.82 in 10.0 mi SSE 9.2 mph - N/A Thunderstorm Scattered Clouds
10:15 PM 68.0 °F 64.4 °F 88% 29.83 in 2.5 mi SW 9.2 mph 27.6 mph N/A Rain Light Rain
10:35 PM 66.2 °F 64.4 °F 94% 29.84 in 10.0 mi South 10.4 mph - N/A   Mostly Cloudy
10:55 PM 68.0 °F 66.2 °F 94% 29.84 in 10.0 mi SSW 9.2 mph - N/A   Mostly Cloudy
11:15 PM 66.2 °F 64.4 °F 94% 29.84 in 10.0 mi WSW 8.1 mph - N/A   Scattered Clouds
11:35 PM 66.2 °F 64.4 °F 94% 29.84 in 10.0 mi West 8.1 mph - N/A   Clear
11:55 PM 66.2 °F 64.4 °F 94% 29.84 in 10.0 mi West 10.4 mph - N/A   Clear